Theta_e
328 328 328 328 328 329 329 329 328 329 329 329 328 327 327 327 329 331 331 330 329 329 330 330 330 330 329 328 328 328 328 327 327 327 324 324 325 325 326 325 327 327 325 327 323 315 319 323 321 320 319 312 302 296 298 298 297 298 300 301 303 305 306 308 308 308 307 307 307 307 307 306 307 306
328 328 328 328 328 328 329 329 328 329 329 329 328 328 327 327 327 329 330 330 329 328 330 330 330 330 329 328 328 328 328 327 328 327 324 322 321 323 325 326 327 326 326 327 321 314 319 323 321 319 317 310 301 298 299 298 297 299 301 302 305 307 309 309 308 307 307 307 307 307 307 307 306 307
328 328 328 328 328 328 328 328 328 328 329 329 329 328 327 326 327 327 328 330 329 328 329 330 330 330 329 328 328 327 327 327 327 327 325 320 317 320 324 326 327 326 327 326 316 312 319 323 321 319 316 309 302 299 300 298 298 301 302 303 306 309 309 308 308 307 307 307 307 307 307 307 307 307
328 328 328 328 328 329 328 328 328 328 328 329 329 329 327 326 327 327 326 327 328 327 328 330 330 330 329 328 328 327 326 327 327 326 324 321 317 319 324 326 326 326 327 322 309 310 319 322 320 319 316 309 301 299 300 297 298 302 303 304 307 309 309 308 307 308 307 307 307 307 307 307 307 307
328 328 327 327 328 328 328 328 328 328 329 329 329 330 329 327 327 327 325 325 326 326 327 328 330 330 329 328 328 327 326 326 326 325 324 321 318 319 323 325 326 326 326 317 306 311 319 320 320 319 315 308 300 298 299 297 299 303 304 306 308 309 308 307 308 307 307 307 307 307 307 307 307 307
327 328 328 327 327 327 327 328 329 329 330 330 329 330 330 329 328 327 327 326 326 326 326 328 329 329 329 328 327 327 326 325 325 325 324 322 320 319 321 323 325 326 322 311 306 311 318 319 320 318 314 306 299 299 299 297 299 303 305 307 308 308 308 307 307 307 307 307 307 307 307 307 307 307
326 327 327 327 327 326 326 327 327 328 328 329 329 329 330 330 328 328 327 326 326 326 326 327 328 329 329 327 327 327 326 325 325 325 324 322 320 320 320 320 322 323 318 308 305 310 315 318 317 316 312 304 299 299 299 297 299 302 305 308 309 308 308 307 307 307 307 307 307 307 307 307 307 307
325 326 326 326 326 326 327 327 327 327 327 327 328 328 329 328 328 328 327 327 327 326 326 327 328 329 329 328 326 326 326 325 324 324 324 322 321 320 319 317 316 317 315 308 305 307 311 314 314 311 307 302 298 299 299 298 299 301 305 308 309 308 308 307 307 307 307 307 307 307 307 307 308 308
324 326 326 326 326 326 326 326 326 327 327 326 327 327 327 327 327 328 328 328 328 326 326 327 327 328 328 327 326 325 324 324 323 323 323 322 320 319 319 317 314 314 316 312 305 305 307 308 309 307 303 300 298 299 299 298 299 301 305 308 309 309 308 308 308 307 308 308 307 308 308 308 308 308
324 325 326 326 326 326 326 326 326 327 327 327 327 326 326 327 327 328 328 328 328 326 326 326 326 327 327 326 325 323 324 324 322 322 321 321 321 320 319 319 316 316 317 313 307 305 305 305 304 303 301 299 299 298 299 299 298 300 304 308 310 309 308 308 308 308 308 308 308 308 308 308 308 306
322 324 325 326 326 326 327 327 326 327 327 327 327 326 326 326 327 327 327 327 327 326 325 325 325 326 327 326 324 322 323 323 322 320 319 319 319 319 319 319 318 318 317 312 306 304 303 301 301 301 300 300 299 299 299 299 299 300 304 308 310 309 308 308 308 308 308 308 308 308 308 308 306 305
320 322 324 326 326 326 326 326 327 327 327 327 326 326 326 326 326 327 327 327 326 325 325 325 325 325 325 326 324 321 320 320 319 319 319 319 318 318 318 317 316 316 315 311 306 305 304 303 303 304 304 303 301 300 299 299 300 300 303 307 309 309 309 308 308 308 308 308 308 308 307 306 306 308
317 320 322 324 326 326 326 326 326 327 327 327 327 326 327 326 326 326 327 326 326 325 325 325 325 324 324 324 323 319 318 318 318 318 319 319 317 316 316 315 314 313 312 309 306 305 304 303 303 305 306 303 302 302 302 300 300 300 302 305 308 309 309 308 308 308 308 307 307 307 306 306 308 311
312 315 318 320 322 323 323 324 325 326 327 327 327 327 327 327 326 325 326 326 326 326 325 324 324 324 323 323 323 320 318 318 317 317 318 318 317 316 315 314 314 314 313 310 307 305 304 303 302 302 302 301 301 302 302 300 300 300 301 304 307 309 309 309 308 308 307 307 306 305 306 309 311 311
306 309 312 315 317 318 320 321 323 325 326 327 327 327 327 327 326 326 325 325 325 326 325 324 324 324 323 323 323 322 319 318 316 316 317 318 318 316 315 314 314 314 314 312 309 307 305 304 302 300 299 300 300 301 301 300 300 300 301 303 306 308 309 308 308 307 306 305 305 306 309 311 309 306
302 303 306 310 312 313 316 318 320 322 324 325 326 327 327 327 327 326 326 326 325 325 325 324 324 324 324 323 323 323 320 318 315 315 316 317 317 317 316 315 314 315 315 312 309 309 308 305 304 301 299 299 300 300 301 301 301 301 302 303 305 306 307 307 307 306 305 304 307 309 309 307 303 301
299 300 302 305 308 310 312 315 317 319 321 322 324 326 326 326 326 326 326 326 326 326 325 324 324 324 324 324 324 324 322 319 316 314 314 315 316 317 316 315 315 316 315 313 310 310 310 308 305 303 300 299 300 301 301 301 301 302 302 303 305 305 306 306 305 304 304 306 308 308 305 302 300 300
298 299 299 300 303 306 308 310 312 315 318 319 321 324 325 326 326 326 326 326 325 326 326 325 325 325 325 325 325 324 323 320 317 315 315 314 314 316 316 316 316 316 316 315 312 310 310 309 307 303 300 299 300 300 301 302 302 303 303 303 304 305 306 306 305 305 306 307 306 303 301 300 300 300
297 297 298 298 300 303 304 305 307 310 314 317 319 322 324 325 326 326 326 325 325 326 326 326 326 325 325 325 325 325 324 322 320 318 317 315 313 313 316 316 315 315 315 316 314 311 309 309 307 305 302 302 301 300 301 301 301 302 303 303 305 306 306 305 305 306 306 304 302 301 300 300 300 300
296 297 297 297 298 300 302 303 305 307 311 315 318 321 323 324 324 324 324 325 325 325 325 326 326 325 325 325 324 324 324 323 322 319 317 315 311 311 313 315 314 314 314 315 314 312 309 308 307 306 305 304 304 303 302 302 302 303 303 304 305 306 305 305 305 305 303 301 301 301 300 300 300 301
296 296 296 296 297 299 300 301 303 305 308 313 316 319 322 323 324 323 323 323 324 325 325 325 325 326 326 325 324 323 323 323 322 319 317 316 313 310 311 312 311 311 313 313 313 311 309 308 307 307 306 305 305 305 304 304 304 304 304 304 305 305 305 304 303 302 301 301 301 300 300 300 300 302
295 296 296 295 295 296 298 300 302 304 306 309 312 315 318 322 323 323 323 323 323 324 324 324 324 325 325 325 324 324 323 322 322 321 319 318 315 311 311 311 310 311 312 312 312 311 309 308 307 306 306 305 305 306 306 306 306 306 306 305 305 305 303 302 301 301 301 301 300 300 300 301 301 301
295 295 296 296 295 295 297 299 301 302 304 306 309 311 314 319 323 323 323 323 322 323 323 322 323 324 325 324 324 324 323 322 322 322 321 320 316 313 312 312 311 312 312 312 311 311 310 308 307 307 307 306 305 305 306 307 306 306 306 305 303 302 301 301 301 301 301 301 300 300 300 300 300 300
294 294 295 295 295 296 297 298 300 301 302 304 306 309 311 315 320 322 323 322 321 320 320 320 321 322 322 322 320 320 322 322 321 321 321 320 318 316 313 312 313 313 313 311 311 310 310 309 308 308 309 309 306 305 305 306 306 305 304 302 301 301 301 302 302 301 301 301 301 300 300 300 300 300
293 293 294 294 295 295 297 297 298 300 301 302 304 306 309 313 316 319 321 320 318 317 317 317 317 317 318 319 317 317 320 321 320 319 318 317 317 317 315 314 313 313 313 312 311 311 310 309 308 308 308 308 306 304 304 304 303 302 302 301 301 302 302 302 301 301 301 301 300 300 300 299 299 299
292 292 293 294 294 295 296 297 297 298 299 301 303 305 309 314 316 317 318 318 315 314 314 314 314 314 315 316 316 316 318 318 317 317 317 316 316 316 316 315 314 313 313 313 312 311 311 310 309 309 308 306 305 303 302 302 302 301 301 301 302 302 302 301 301 300 300 300 300 299 299 298 298 298
292 292 293 294 295 295 296 296 296 297 298 299 301 303 308 312 314 315 316 315 313 312 311 311 311 311 311 313 314 314 314 313 314 316 317 317 317 317 317 316 315 314 314 314 312 312 312 310 309 309 308 306 304 303 303 303 302 302 301 301 301 301 301 301 300 300 300 300 299 298 298 297 297 297
292 292 292 294 295 295 296 296 296 296 296 297 299 302 304 307 309 310 311 311 311 309 308 307 307 306 307 309 310 311 310 310 312 314 315 315 317 317 316 315 314 313 313 313 312 312 312 311 310 309 309 307 305 304 304 304 303 302 301 301 300 300 300 300 300 300 300 299 298 298 297 297 297 297
293 293 293 293 294 295 295 296 296 296 295 296 297 299 301 302 302 303 304 306 306 305 304 303 303 302 303 304 305 306 307 308 309 311 311 311 312 313 313 312 311 311 311 311 311 311 311 311 310 309 309 308 307 305 305 304 303 303 302 300 299 299 300 300 300 300 299 298 298 297 297 296 296 296
293 293 293 293 293 293 294 295 295 295 295 295 296 297 298 299 298 298 298 299 300 300 300 301 301 301 301 301 302 303 305 306 306 306 307 307 308 309 310 309 308 308 308 309 310 310 309 310 310 309 308 307 307 306 305 304 302 302 303 302 299 299 299 300 300 299 298 298 297 297 296 295 295 295
293 292 292 292 292 292 293 294 294 295 295 295 295 295 295 296 297 297 297 297 297 297 298 299 300 300 301 301 301 302 303 303 303 303 304 304 304 306 308 307 305 305 306 307 308 309 308 308 308 308 307 306 305 304 304 303 301 301 302 302 300 299 299 299 299 298 297 297 297 296 296 295 295 295
292 292 292 292 292 292 292 292 293 293 294 294 294 294 294 294 295 297 298 298 297 297 298 299 299 300 300 300 300 301 301 301 301 302 303 302 302 304 305 303 301 302 303 304 306 307 307 307 307 307 307 306 305 304 303 302 301 300 300 300 300 300 299 299 298 298 297 297 297 296 295 295 295 295
292 292 291 291 291 291 291 291 291 291 291 292 293 293 294 295 295 295 296 295 295 296 298 298 299 299 299 299 299 300 300 300 300 301 301 301 301 302 302 300 299 299 300 301 302 304 305 306 307 307 306 304 304 303 302 300 299 300 300 300 300 299 299 299 298 298 297 297 296 296 295 295 295 295
292 291 291 290 290 291 290 290 290 290 290 290 291 292 293 294 294 294 294 294 294 295 296 297 298 299 299 299 299 299 299 299 300 300 300 300 299 299 299 298 298 298 298 298 299 300 301 303 304 303 303 302 301 301 301 300 299 299 300 300 300 299 299 299 298 298 297 297 296 296 296 295 295 295
292 292 291 291 290 290 290 290 290 290 290 290 290 291 291 292 292 293 293 294 294 295 295 296 297 298 298 298 298 299 298 298 299 299 299 299 298 298 298 297 297 297 297 297 297 298 299 300 300 300 299 299 299 299 299 299 299 298 299 299 299 298 298 298 298 297 297 296 296 296 296 296 295 294
292 292 291 291 291 290 290 290 290 290 290 290 290 290 291 291 291 291 292 293 293 294 294 294 295 296 297 298 298 298 298 298 298 298 298 298 298 297 297 297 297 297 297 297 297 298 299 299 299 298 297 297 297 296 297 298 298 298 298 298 298 298 298 298 298 297 297 296 296 295 295 295 295 293
292 292 291 291 291 291 291 291 291 291 291 291 291 291 291 291 291 291 291 292 293 292 292 293 293 295 296 297 297 297 297 297 297 297 297 297 297 297 297 297 297 297 297 297 297 298 298 298 299 298 296 295 295 295 295 296 297 298 297 297 298 298 298 297 297 297 297 296 295 295 295 295 294 293
293 292 291 291 291 291 291 291 291 291 291 291 291 291 291 291 291 292 292 292 292 292 292 292 292 293 294 295 295 295 295 296 296 296 296 296 296 296 296 297 297 297 297 297 297 297 297 297 298 297 295 294 294 294 294 295 296 297 297 298 298 297 297 297 297 297 296 296 295 295 295 294 293 292
293 292 292 292 292 292 292 292 291 291 291 291 291 291 291 291 291 292 292 292 292 292 292 292 292 292 293 293 293 293 294 294 295 295 296 295 295 295 296 296 297 297 297 297 297 297 297 297 297 297 297 295 295 295 295 295 295 296 296 297 297 297 297 297 296 296 296 295 295 295 295 294 293 292
292 292 292 292 292 292 292 292 292 292 291 291 291 291 291 292 292 291 292 292 292 292 292 292 292 292 292 293 293 293 293 293 293 294 295 295 295 295 295 295 296 296 296 296 297 297 297 297 297 297 297 296 295 295 295 295 295 295 296 296 296 297 297 297 296 296 296 295 295 295 294 294 293 293
292 292 292 292 292 292 292 292 292 292 292 291 292 292 292 292 292 291 291 292 292 292 292 292 292 292 292 292 293 293 293 293 293 294 295 295 295 295 295 295 295 296 296 296 296 297 297 297 296 296 295 294 294 294 294 294 294 294 295 295 295 296 296 296 296 296 296 296 296 295 294 294 294 293
292 292 292 292 292 292 292 292 292 292 292 291 291 291 291 291 291 291 291 291 292 292 292 292 292 292 292 292 292 293 293 293 293 294 294 295 295 295 295 295 295 295 295 296 296 296 296 296 295 294 293 293 293 293 293 292 293 294 294 294 294 294 295 295 295 295 295 296 296 295 294 294 293 293
292 292 292 292 292 292 292 292 292 292 292 292 292 292 291 291 291 291 291 291 291 291 291 291 292 292 292 292 292 292 292 292 293 293 294 294 295 295 295 295 295 295 295 295 295 296 296 295 294 294 293 293 294 293 293 293 293 293 293 293 293 293 293 293 294 294 295 295 296 295 295 294 294 294
292 292 292 292 292 292 292 291 292 292 292 292 292 292 291 291 291 291 291 291 292 292 291 291 291 292 292 292 292 292 292 292 292 293 293 294 295 295 295 295 295 295 295 295 295 296 296 295 295 295 294 294 294 294 293 293 293 293 293 293 293 293 293 293 293 293 293 294 294 294 294 294 294 293
292 292 292 292 292 292 292 291 291 292 292 292 292 292 291 291 291 291 291 291 291 292 292 291 291 291 292 292 292 292 292 292 292 292 293 294 295 295 295 295 295 295 295 295 296 296 295 295 295 295 295 295 295 294 294 294 294 294 294 294 294 294 294 294 294 293 293 293 293 293 293 293 292 292
Wind_Speed
28 29 29 29 29 29 29 30 28 27 29 29 27 25 22 16 7 4 6 5 8 17 21 21 24 29 30 30 30 30 30 30 30 28 26 27 27 27 27 29 31 30 32 32 29 28 30 30 28 26 25 24 24 25 26 25 25 26 25 24 24 23 22 21 20 19 18 17 16 15 14 12 10 8
27 27 27 27 28 27 26 27 28 26 26 28 28 26 26 23 15 8 6 7 10 16 21 22 24 27 32 31 30 30 30 31 32 31 28 27 27 28 28 30 32 32 32 32 29 29 32 31 29 27 26 25 25 26 27 26 26 26 25 25 25 24 23 22 21 20 19 18 16 14 12 11 9 7
26 27 26 26 26 25 25 26 26 26 26 26 27 27 27 26 24 17 8 5 11 17 21 24 26 27 31 33 31 29 30 31 33 34 31 27 26 28 29 31 32 32 32 31 29 31 34 32 30 28 26 26 26 27 27 27 27 27 26 26 25 24 23 22 21 21 19 17 15 13 11 9 8 6
25 26 25 24 24 22 23 25 25 24 25 26 26 26 27 27 27 23 14 5 8 17 23 26 27 28 31 34 31 29 31 33 35 36 33 28 27 28 30 32 32 32 32 30 30 33 35 33 31 29 27 26 27 28 28 28 28 28 27 26 25 24 23 22 21 19 17 15 14 12 10 9 7 5
22 24 24 24 24 22 21 22 24 24 23 23 24 25 25 25 26 25 19 11 9 14 20 24 27 28 30 32 32 31 33 35 36 36 33 30 29 30 31 32 33 33 32 30 30 34 35 33 32 30 28 27 27 28 28 28 29 28 27 26 25 24 23 22 21 19 17 15 13 11 9 8 7 6
19 19 20 22 22 22 21 21 21 22 22 23 25 25 24 24 26 27 24 18 12 11 17 23 25 26 29 32 32 33 34 37 38 37 35 32 31 31 32 34 34 34 32 30 30 34 35 34 33 31 28 27 28 29 29 29 29 29 27 26 25 24 23 22 21 19 17 15 13 11 9 8 8 8
18 17 18 20 20 19 20 20 19 19 21 23 24 25 25 25 26 27 27 23 17 14 17 22 24 26 29 31 33 35 36 37 38 38 36 35 34 33 33 35 35 35 33 31 31 34 35 34 33 31 29 28 28 29 30 30 30 29 28 26 25 24 23 22 21 19 17 15 12 11 10 9 9 10
18 18 19 20 19 17 17 17 18 19 20 21 23 25 27 27 27 26 26 27 24 18 17 21 26 28 31 32 33 34 35 35 38 38 37 36 35 35 35 35 35 35 33 31 31 33 35 34 33 31 29 29 29 30 31 31 31 30 29 27 25 24 24 23 21 19 17 14 13 11 10 10 10 11
17 17 19 20 19 18 17 16 17 18 20 21 23 27 27 25 25 25 26 29 27 23 19 19 23 27 30 30 32 35 34 32 33 34 34 35 36 36 36 36 36 35 34 32 32 33 34 34 33 31 30 30 30 31 31 32 32 31 30 29 27 26 25 24 21 19 17 15 13 12 11 11 12 13
17 16 18 20 20 18 18 18 18 19 21 22 24 29 28 24 22 24 27 27 26 25 24 21 21 25 28 27 27 32 36 34 32 30 28 29 32 34 35 36 36 36 36 34 33 33 34 34 33 32 31 30 31 31 32 32 32 31 31 30 28 27 26 24 22 19 17 15 14 13 12 13 13 14
17 17 17 17 19 18 17 17 18 19 21 23 25 28 28 25 23 24 26 26 25 25 23 21 22 24 26 27 27 30 34 34 33 31 27 24 27 30 33 35 35 36 37 35 33 33 33 33 33 32 31 31 31 31 31 32 32 31 31 30 29 28 27 24 22 20 18 16 15 14 14 14 15 14
21 19 16 14 14 16 16 16 16 18 20 23 26 27 26 25 24 24 24 23 22 23 21 21 21 21 22 25 25 27 29 27 26 30 32 30 29 30 32 35 35 35 37 36 35 34 34 34 33 33 32 31 31 31 31 32 32 32 31 30 30 29 27 25 23 21 19 17 15 15 15 15 14 13
23 21 18 13 12 14 15 15 16 18 21 23 25 26 27 26 24 23 22 21 20 21 20 19 19 18 19 22 22 23 28 28 27 31 32 29 29 30 31 33 35 36 36 36 36 36 35 36 35 35 34 33 33 32 32 32 33 32 32 31 30 29 28 26 24 21 19 17 16 15 15 14 12 11
25 23 20 16 14 15 16 16 17 19 22 24 26 26 26 26 26 23 21 21 21 19 16 17 18 17 17 23 26 26 29 30 29 32 31 27 27 27 24 24 30 34 35 34 36 38 37 37 37 37 36 35 34 34 33 33 34 34 33 32 31 30 28 26 24 22 19 17 16 15 13 12 11 10
27 26 24 20 17 16 15 15 15 16 20 23 26 27 27 27 27 26 23 22 22 19 17 19 20 19 19 25 29 29 29 29 29 32 32 28 27 25 20 17 22 30 34 34 34 37 37 38 39 38 38 37 36 36 35 35 35 34 34 33 32 30 29 26 24 21 19 16 15 14 12 11 10 9
28 29 28 26 23 20 17 15 14 14 15 19 23 26 27 27 28 27 25 25 24 23 22 21 21 22 22 26 29 30 30 31 31 32 32 31 31 30 25 21 22 29 36 34 31 33 36 38 39 39 39 38 37 36 36 36 35 35 34 33 32 30 28 26 23 20 17 15 13 12 11 10 9 8
28 28 30 30 29 25 20 18 17 16 15 16 19 22 24 26 28 29 28 28 28 28 28 26 24 26 25 26 32 35 34 34 32 30 31 32 32 31 30 30 29 29 34 35 31 29 33 37 39 40 39 38 37 36 36 36 35 35 34 33 32 30 27 25 21 18 16 14 13 12 10 8 7 6
29 27 28 30 31 29 25 23 22 20 18 17 17 19 20 22 25 28 29 30 30 30 30 30 31 34 33 33 37 38 38 37 36 35 35 36 35 32 31 33 31 28 32 37 31 25 29 35 37 39 39 38 37 37 36 37 36 35 35 34 31 29 27 23 20 18 16 15 13 11 9 7 6 5
30 27 27 28 31 31 29 28 26 24 23 21 18 19 19 19 21 26 29 31 32 32 31 32 34 36 36 37 38 39 41 41 41 42 42 39 36 31 27 26 26 25 30 36 31 23 27 34 34 35 36 36 36 37 37 37 37 36 35 34 31 28 25 22 20 19 17 15 13 11 9 8 7 6
31 29 28 29 31 32 31 30 29 26 24 22 19 19 20 20 19 22 26 28 30 31 31 32 33 32 32 34 34 35 40 42 40 35 32 31 29 26 24 24 25 25 29 36 35 24 22 29 32 29 28 28 29 32 34 34 34 33 33 32 29 26 23 22 22 20 18 16 14 12 10 9 8 8
31 29 27 28 31 32 32 32 30 28 26 22 18 17 20 21 19 19 22 24 25 27 29 31 31 31 31 32 32 33 35 39 38 30 24 28 31 26 19 18 22 26 29 35 37 26 18 25 29 23 19 21 23 24 25 26 25 25 26 27 26 25 24 24 24 21 19 18 16 13 12 11 11 10
32 31 28 29 31 32 31 30 30 29 27 24 20 16 18 21 21 20 20 21 22 21 23 25 26 27 28 29 31 33 32 34 38 36 31 33 35 28 21 19 20 22 27 35 37 24 16 24 28 22 15 11 13 17 20 21 21 20 20 23 25 26 27 26 24 22 20 18 16 14 13 13 12 10
32 33 32 31 31 31 29 29 29 28 26 25 22 18 15 18 24 24 21 20 20 19 18 18 20 22 24 25 28 31 31 31 36 41 40 38 36 31 26 24 19 13 19 35 39 26 19 26 30 25 16 7 3 11 17 19 20 22 25 28 28 28 28 27 25 23 21 18 16 14 14 13 12 10
31 33 33 33 32 31 29 28 28 27 25 24 21 18 15 15 19 22 20 19 17 17 16 16 17 19 21 23 22 22 25 29 34 39 39 38 40 36 30 28 24 16 20 35 41 32 25 29 31 29 21 12 9 14 20 24 28 30 31 33 32 30 30 28 25 22 20 18 16 15 14 13 11 9
28 31 32 33 32 31 29 28 28 27 25 23 20 18 17 16 13 13 17 17 15 15 16 15 16 17 18 19 17 15 18 24 30 34 34 33 37 38 35 33 30 23 22 33 42 37 29 30 32 27 21 18 21 25 25 26 29 31 31 32 33 32 30 27 24 22 20 18 17 15 14 12 10 8
27 29 30 30 31 30 28 28 28 28 27 25 22 19 16 13 11 11 15 16 14 14 15 15 15 15 15 14 13 14 17 19 21 23 24 24 27 30 32 34 34 28 25 32 42 42 34 32 34 30 24 23 25 28 28 24 24 27 29 32 34 32 29 27 25 24 22 20 18 16 14 12 10 9
27 28 28 27 29 29 29 29 29 29 30 30 26 19 12 3 4 9 13 15 16 16 16 14 13 11 11 12 12 11 12 12 13 16 18 20 22 22 22 26 29 28 28 33 40 41 38 36 37 35 33 32 27 23 22 22 23 26 28 30 32 30 29 28 27 25 22 20 18 16 14 13 12 10
27 28 27 26 26 27 28 29 30 30 31 32 30 24 17 11 9 7 9 13 15 16 17 16 13 11 10 11 12 12 11 11 12 15 16 17 18 18 17 18 19 20 23 28 33 34 35 37 38 37 39 41 36 26 22 22 26 28 29 29 30 30 29 28 27 25 21 18 16 15 14 14 12 10
27 27 27 27 26 26 27 28 31 33 33 33 33 30 26 23 21 17 13 13 14 15 18 19 17 15 13 13 14 16 18 18 17 18 19 19 18 19 21 20 19 19 20 23 26 27 29 35 38 37 39 42 41 36 31 29 28 29 30 31 31 30 29 27 25 24 21 18 16 15 13 13 11 8
29 28 29 29 29 29 29 29 30 32 33 33 34 35 32 31 30 28 24 19 18 18 18 20 21 18 16 16 17 20 22 22 22 22 24 25 25 25 27 27 25 21 19 19 20 23 25 30 34 35 34 33 33 34 33 32 31 29 30 32 32 29 27 26 24 23 22 20 18 16 14 13 11 8
30 31 31 31 31 32 32 32 31 31 32 33 34 35 35 33 32 31 30 27 24 21 20 21 22 20 19 18 19 22 24 24 23 23 25 26 27 27 30 31 29 26 23 20 19 20 22 25 30 32 33 31 30 29 30 32 32 29 29 33 33 29 28 28 25 23 21 19 18 17 15 13 12 11
31 33 33 33 34 35 35 34 34 33 33 33 33 33 33 33 33 32 30 29 29 26 24 24 24 23 21 20 21 23 25 24 23 23 25 25 24 26 31 30 28 27 28 26 25 24 25 26 28 29 32 34 33 32 31 31 31 31 30 30 31 31 31 30 26 22 20 19 18 16 14 13 12 11
32 34 34 34 33 33 33 33 33 33 33 33 32 32 31 31 32 32 31 30 29 27 27 28 27 26 24 22 22 24 25 24 23 23 25 25 23 26 31 29 25 27 30 29 28 29 28 28 28 28 30 33 33 34 34 30 28 30 31 29 30 32 31 27 25 23 20 19 19 17 15 13 11 10
32 32 31 31 31 30 30 29 29 30 31 31 31 31 31 29 29 28 29 29 28 28 29 29 28 27 26 24 24 26 26 26 25 25 26 26 26 28 30 28 26 27 30 29 29 31 31 31 31 31 32 33 31 31 35 34 30 30 31 31 32 32 29 26 24 22 19 18 19 19 17 14 11 10
30 29 28 28 29 29 28 28 28 28 29 29 29 30 31 31 30 27 26 25 26 27 29 29 28 27 26 25 26 27 27 28 29 29 29 30 29 28 28 27 26 27 29 28 27 29 31 32 33 33 31 31 28 25 27 32 32 30 30 29 28 29 28 26 24 21 19 18 19 19 17 14 11 10
28 27 26 26 27 28 27 28 28 28 28 29 29 29 30 30 30 29 26 24 23 25 25 25 24 25 25 26 26 26 26 27 28 28 29 30 29 28 28 27 26 26 27 25 23 26 28 30 32 31 25 20 17 13 13 20 26 27 27 27 26 26 27 26 24 22 20 19 17 16 16 15 12 11
26 26 26 26 26 27 27 28 29 29 29 29 30 30 29 29 29 29 28 27 26 26 24 23 21 21 22 24 25 24 24 24 24 24 24 24 25 24 24 24 24 23 23 21 18 19 21 22 26 28 21 12 7 5 7 14 20 24 26 27 26 26 27 26 25 22 19 16 14 13 15 15 14 12
22 22 24 25 25 26 26 27 28 29 29 30 30 30 29 30 30 29 28 28 28 26 25 24 22 20 20 20 21 21 21 21 21 21 21 20 21 21 20 20 20 20 20 19 17 16 16 17 21 25 23 14 6 5 8 12 16 19 22 24 25 25 24 24 24 21 18 15 14 13 14 15 14 13
20 19 20 21 23 25 26 25 26 26 27 27 28 28 28 29 29 29 29 28 27 26 26 25 23 22 21 20 20 21 21 20 19 19 19 19 19 19 19 19 19 18 18 18 16 15 15 17 19 21 22 19 16 16 18 18 16 16 18 20 23 24 23 22 22 20 18 17 15 14 15 15 14 13
22 20 18 17 18 20 22 24 24 24 24 24 23 24 26 27 27 27 26 26 26 26 25 25 24 23 22 21 20 21 22 21 19 18 18 19 19 19 19 19 19 19 18 17 16 14 14 15 16 16 18 19 21 24 26 23 19 17 17 17 18 19 20 20 20 19 18 17 16 15 16 16 14 13
23 23 21 20 19 18 18 19 21 22 21 21 21 22 23 25 25 25 24 23 23 23 23 23 23 22 22 21 20 20 20 19 18 17 18 19 19 19 19 19 20 20 19 17 16 15 14 15 17 18 20 22 25 25 22 18 17 17 18 17 16 15 15 15 15 16 16 16 16 16 15 14 13 13
22 22 23 23 24 23 20 16 16 18 19 19 19 20 21 21 22 22 23 23 23 22 21 21 20 20 19 19 19 18 18 16 15 15 15 17 17 17 16 17 17 19 20 19 18 17 17 19 23 25 25 26 26 22 17 14 16 17 17 17 16 15 14 14 13 12 12 13 15 15 14 12 10 11
20 20 21 22 23 25 24 19 14 15 17 18 18 19 20 20 20 20 21 22 22 20 19 19 18 17 17 16 16 16 15 15 15 12 10 11 12 12 12 12 13 16 19 20 19 19 21 23 24 25 24 23 22 22 19 17 18 19 18 17 17 16 15 15 14 12 12 12 13 12 11 9 8 8
19 18 19 20 21 23 24 21 16 13 13 15 16 17 19 20 20 20 20 20 19 18 17 17 17 16 15 15 15 15 14 14 15 13 9 8 8 9 10 11 13 16 18 19 19 19 20 21 21 20 19 18 20 22 21 19 18 18 18 17 16 16 15 15 15 14 14 13 11 9 8 7 7 9
17 17 17 18 19 21 22 21 18 15 13 13 13 15 16 18 19 20 21 20 19 17 15 15 15 14 14 15 16 15 14 13 13 13 10 7 8 9 10 12 14 16 16 16 16 16 17 18 18 17 16 16 18 20 20 19 18 17 16 15 15 14 14 14 14 14 14 13 12 10 10 10 12 14
Wind_Direction
275 266 260 255 254 255 249 240 234 226 221 219 215 213 212 212 206 205 214 204 214 220 216 216 217 217 218 216 213 214 213 213 214 213 213 213 210 207 204 202 200 200 200 201 201 198 197 200 201 205 211 205 196 192 188 187 184 180 176 172 171 172 171 170 167 164 163 162 162 159 154 153 152 152
278 268 261 258 256 253 247 242 237 230 224 222 222 222 217 214 213 209 208 211 213 212 213 216 217 216 215 213 213 215 216 216 215 214 213 211 211 208 205 203 201 201 202 203 204 199 198 202 202 205 210 205 197 192 190 189 186 182 178 175 176 175 174 174 172 170 170 170 169 166 163 164 166 169
276 268 262 259 257 252 245 243 240 233 228 225 226 226 220 218 221 219 209 217 218 209 210 215 217 217 212 209 211 213 215 215 214 214 213 209 210 209 205 204 203 201 202 205 205 199 198 203 205 207 210 206 199 194 191 191 188 184 181 180 180 178 177 179 178 176 176 175 174 175 176 179 183 190
276 267 261 258 256 249 243 242 240 235 231 228 226 227 222 220 223 223 214 220 229 217 217 216 215 216 211 206 208 209 209 212 212 212 212 208 207 206 205 205 203 201 203 206 205 199 199 203 206 209 211 207 201 195 193 193 191 187 185 184 184 182 181 182 183 183 183 181 183 187 190 196 203 217
278 267 259 255 252 247 244 243 237 233 232 229 226 227 226 221 223 223 215 217 234 225 222 220 216 214 207 202 205 205 204 206 207 208 209 207 206 205 204 204 204 203 204 206 204 198 199 204 207 210 212 208 202 197 194 195 194 191 188 188 188 187 186 186 186 188 189 190 194 199 204 213 227 246
285 272 259 254 254 250 247 244 236 231 231 231 230 227 225 222 222 221 215 218 231 226 220 218 215 211 204 201 203 204 203 203 203 204 205 205 205 205 205 204 203 204 206 207 204 199 200 204 208 211 213 209 204 198 195 196 197 195 191 191 192 192 191 190 191 193 195 199 203 209 218 231 245 260
295 282 267 260 259 255 249 248 246 239 234 234 233 228 223 223 224 221 218 219 223 223 220 215 209 206 204 202 202 203 205 204 202 202 203 204 204 204 206 206 205 206 207 207 205 203 203 205 209 212 213 211 205 200 197 197 198 197 195 194 196 197 196 196 197 199 202 206 212 219 229 242 257 271
302 288 277 272 267 259 251 250 251 249 245 241 237 234 230 227 226 225 223 223 222 221 222 214 207 204 203 203 202 202 205 204 201 200 202 203 203 205 207 208 208 207 207 207 206 206 206 208 210 213 214 211 206 202 199 198 199 199 197 197 199 200 201 202 203 205 208 213 219 228 240 253 266 277
312 292 279 278 274 265 259 258 254 248 246 245 242 243 240 231 227 226 225 226 223 220 223 218 208 204 203 202 202 201 200 199 197 198 200 201 203 205 207 209 211 209 207 207 208 209 210 211 213 215 215 212 207 205 202 201 201 200 199 200 201 202 204 206 208 210 213 219 226 236 248 260 272 281
323 306 290 284 280 273 267 263 255 246 243 244 244 246 243 233 226 226 226 227 223 219 222 219 206 200 199 197 196 199 199 194 191 191 196 201 202 203 206 208 211 211 208 207 209 211 212 214 215 216 216 213 210 208 206 204 204 203 202 203 203 204 207 209 212 214 218 224 232 243 255 264 274 284
334 325 313 302 292 284 278 271 260 250 243 242 243 244 242 233 225 226 228 227 222 220 219 214 205 198 196 194 193 197 199 196 191 185 183 192 200 203 206 207 208 210 210 209 210 213 214 216 217 217 217 216 213 212 211 208 207 206 206 205 205 207 209 212 215 218 223 229 237 247 258 267 276 281
342 338 329 317 306 298 292 285 275 262 251 246 244 244 242 235 225 223 227 223 216 214 213 210 206 196 192 193 192 191 192 191 189 186 185 189 196 202 207 208 209 210 210 210 210 213 215 216 217 218 218 218 217 216 215 213 211 209 209 208 209 210 212 215 218 222 227 233 242 251 260 269 274 269
350 350 343 329 321 318 308 294 282 271 261 254 249 245 243 236 224 219 224 221 213 210 209 208 205 195 191 193 189 185 188 190 189 190 191 191 193 198 204 208 210 211 210 209 211 213 215 215 216 217 218 218 218 219 218 217 214 212 211 211 211 212 215 218 221 226 231 237 245 254 262 265 262 252
357 359 356 345 335 331 323 308 293 280 270 263 256 251 245 237 226 216 214 218 217 212 210 210 205 196 193 196 193 191 194 195 190 187 189 189 189 193 199 206 211 212 210 208 209 213 216 215 215 216 217 217 218 219 219 219 217 215 213 213 213 214 217 221 225 229 235 241 248 255 258 253 245 241
359 359 359 359 356 351 342 330 313 294 280 270 263 257 252 246 236 223 212 212 213 209 210 216 210 201 197 198 198 197 196 195 191 189 188 185 184 187 192 200 207 212 212 208 207 211 215 215 215 216 218 218 218 219 219 219 219 218 215 214 214 216 218 222 227 231 235 241 246 247 242 235 235 240
0 359 359 0 3 1 354 344 331 312 291 276 268 260 255 250 243 235 225 218 213 207 207 214 214 209 204 200 199 199 196 192 192 190 186 185 188 190 193 197 202 208 211 208 205 209 213 214 215 217 218 219 219 219 220 220 220 220 218 217 216 217 219 223 227 230 234 237 234 229 224 224 231 239
3 2 360 359 1 1 357 351 341 325 307 288 275 267 260 251 244 242 238 231 224 215 207 207 213 216 210 203 203 203 197 192 190 187 186 191 195 194 196 202 205 206 206 204 203 208 213 213 214 216 220 221 221 222 222 221 221 221 220 220 218 219 220 223 226 226 225 221 214 210 212 216 222 227
5 4 2 359 359 1 1 357 348 333 320 305 284 273 270 261 251 247 242 236 232 224 213 208 214 218 215 211 210 206 199 194 191 189 191 197 199 198 200 206 208 207 207 204 200 204 213 212 211 215 220 221 222 223 223 223 222 222 221 221 220 220 221 221 221 216 207 201 199 198 198 196 197 199
8 6 3 360 0 1 1 359 352 340 328 316 298 282 278 274 264 254 244 235 230 227 221 217 221 222 218 217 215 209 203 200 200 201 201 199 198 196 195 202 209 213 212 206 198 200 211 210 208 213 218 220 222 225 225 225 225 224 223 223 221 220 219 214 205 195 189 188 186 181 176 171 171 174
9 8 3 360 1 1 360 357 353 345 334 321 306 289 280 279 272 259 247 236 230 229 228 228 230 228 224 223 222 215 208 204 203 204 201 195 192 190 188 198 209 213 212 206 202 202 205 204 204 208 213 217 220 224 226 227 228 227 226 224 222 216 207 196 185 178 178 179 173 166 162 152 149 154
9 9 5 1 1 2 0 357 352 348 340 328 313 293 279 275 268 255 245 237 232 231 232 233 235 235 233 232 230 225 218 209 202 196 189 191 194 189 186 196 204 207 208 205 204 203 194 194 196 193 196 208 215 221 226 225 223 224 224 220 213 201 187 176 171 171 172 170 164 158 150 141 139 144
8 9 8 6 5 3 1 358 354 351 344 335 324 306 285 273 264 253 243 236 233 233 233 232 231 231 231 231 230 228 224 215 207 201 196 197 197 193 193 194 191 199 208 205 203 202 185 182 185 174 163 182 203 209 214 213 206 204 203 197 187 177 169 165 167 168 165 161 156 150 143 137 136 139
4 7 8 9 8 5 3 2 359 355 349 341 332 320 299 274 260 255 247 239 236 233 226 221 218 216 217 219 220 220 219 216 213 210 207 204 199 197 198 192 177 180 206 204 200 194 178 176 179 171 155 122 143 186 185 182 179 174 170 168 164 161 161 163 165 164 160 157 153 145 140 137 134 132
358 2 5 8 8 7 7 7 4 2 357 348 337 325 309 281 263 257 248 239 234 224 211 202 200 199 201 204 204 202 204 208 209 209 210 208 205 203 199 190 185 190 202 200 196 191 182 178 178 178 174 156 138 153 157 156 157 159 160 159 156 157 160 162 162 159 156 155 150 141 138 135 128 125
357 358 2 6 8 9 10 11 10 9 6 359 349 335 311 286 272 260 242 229 219 204 191 184 183 182 184 190 189 179 182 192 199 203 206 205 204 204 200 194 192 194 197 198 196 191 184 177 173 173 168 154 144 145 149 154 156 158 162 159 156 158 162 159 155 151 149 147 141 135 135 132 124 124
1 1 3 7 11 12 14 16 16 17 16 13 5 349 319 286 271 257 232 212 194 179 173 171 171 170 172 176 177 175 178 180 182 188 194 196 198 200 200 198 197 195 195 197 195 193 189 180 174 168 156 144 144 147 149 154 158 161 162 160 159 161 162 156 149 146 143 139 135 132 130 126 125 129
5 6 8 10 14 17 20 23 23 24 25 25 20 7 354 331 224 224 210 189 172 158 151 151 152 151 156 159 157 164 176 173 166 167 174 186 196 199 198 198 199 198 196 191 189 193 194 184 177 173 162 147 143 148 151 154 159 161 159 160 160 159 159 156 150 145 142 138 133 129 124 121 126 133
10 11 13 15 17 20 23 27 30 31 31 33 33 30 33 59 98 138 157 158 153 140 128 124 118 112 123 138 141 141 140 140 154 164 163 168 179 182 177 178 181 182 183 181 183 192 195 185 177 176 170 158 152 154 155 156 159 159 155 155 156 155 156 155 150 145 142 138 132 127 121 121 126 132
17 18 22 24 24 25 26 29 33 34 34 37 41 43 45 50 56 64 85 110 117 108 103 103 100 95 99 110 117 123 124 123 128 139 141 139 141 146 145 143 144 152 162 171 178 185 188 183 177 174 171 166 162 159 157 155 156 157 155 151 151 153 155 155 151 146 141 135 129 122 114 113 117 124
23 24 27 28 28 29 30 32 33 33 35 39 44 48 51 51 49 48 51 63 74 77 82 90 93 92 94 102 109 114 117 117 115 117 123 125 126 133 133 125 118 124 138 155 170 177 178 177 173 167 161 158 156 156 153 148 145 151 156 154 150 150 155 156 151 145 139 133 127 120 112 107 107 112
26 27 28 29 30 32 34 36 36 35 36 38 40 44 48 52 55 55 53 53 55 60 69 80 87 94 100 101 102 105 107 107 107 110 114 114 116 124 128 119 108 107 114 124 140 153 158 159 160 157 151 145 141 142 143 140 136 139 150 156 154 153 155 155 150 144 139 132 126 122 119 115 111 110
28 29 29 28 29 30 31 33 33 34 35 35 36 39 43 48 54 60 63 60 56 57 66 73 78 86 92 90 90 96 98 97 100 106 109 108 109 115 117 111 104 103 106 110 118 128 137 143 146 147 145 141 138 137 135 133 132 135 142 151 155 156 156 154 149 144 140 134 129 128 126 121 118 117
29 29 26 24 23 25 26 26 27 29 32 33 34 36 40 44 48 52 55 54 53 57 66 72 73 76 79 78 80 87 89 90 95 101 104 103 104 107 106 101 99 101 102 103 109 115 121 129 134 137 137 137 139 143 139 130 128 135 142 146 150 152 156 156 151 148 146 140 136 137 134 129 127 125
30 28 24 21 20 21 22 23 23 26 29 32 32 34 37 40 42 43 45 47 50 57 64 69 73 76 77 75 76 79 81 83 88 94 97 96 96 98 98 96 95 99 99 99 104 109 113 118 122 124 127 127 129 136 139 134 130 134 141 146 148 151 157 160 157 154 153 147 142 141 140 136 128 115
31 29 25 21 20 21 22 24 24 26 29 31 32 34 37 39 39 40 41 44 49 56 60 65 70 74 76 76 76 79 80 80 84 87 89 88 86 86 89 92 93 97 100 99 102 108 113 117 117 115 115 115 113 115 126 132 133 134 138 144 149 153 159 163 161 157 156 154 148 142 137 131 119 106
33 31 29 25 23 24 25 26 28 29 31 33 34 34 35 36 38 40 43 46 52 56 56 58 61 67 73 77 78 81 83 83 84 86 87 87 86 83 83 86 88 93 97 97 100 106 111 114 115 110 102 103 104 96 104 126 138 144 145 147 152 157 160 163 164 161 160 159 151 138 130 128 122 116
34 34 35 34 31 30 29 29 31 32 32 33 35 35 34 33 34 37 43 48 52 53 54 57 59 63 71 78 80 81 83 85 88 91 93 96 97 96 94 94 95 98 101 101 103 108 110 113 117 114 106 100 102 90 94 121 141 151 152 152 155 159 161 163 165 164 161 154 142 130 129 132 131 128
33 34 37 38 35 33 31 29 29 30 30 32 34 34 35 36 37 39 43 47 48 49 51 56 60 64 69 74 76 77 79 83 89 95 99 101 102 104 105 106 107 109 110 110 110 114 120 129 132 130 126 121 119 122 118 122 134 147 155 157 157 158 161 162 162 160 156 147 137 131 133 136 136 134
35 33 32 34 35 34 32 30 27 25 24 26 29 33 36 39 40 41 44 46 48 50 52 53 56 61 64 68 71 74 76 78 81 90 99 103 104 106 109 112 114 115 115 116 117 119 127 137 145 147 145 143 145 147 141 132 130 140 152 158 159 159 161 160 156 154 152 150 146 141 140 141 142 142
38 36 30 27 28 29 29 30 29 27 24 25 30 36 39 40 41 41 42 44 46 49 51 51 52 55 58 63 69 73 73 73 74 83 99 107 108 109 111 113 115 118 118 120 125 132 139 145 154 163 162 154 147 143 137 130 126 131 140 148 154 158 160 159 156 154 152 154 154 149 146 149 152 153
36 38 37 32 28 24 21 21 25 28 30 31 35 37 38 38 39 41 44 45 45 46 47 48 48 50 51 54 61 67 69 70 72 81 95 104 108 111 113 114 115 117 116 117 122 130 137 141 144 145 143 140 138 136 131 124 123 128 132 135 140 147 152 155 156 156 157 161 163 157 153 156 161 163
36 38 40 38 36 33 28 21 22 29 32 33 33 33 35 37 38 39 42 44 44 44 46 46 45 46 46 47 51 58 62 66 73 85 99 105 107 111 115 116 117 119 118 117 119 124 129 133 134 134 134 136 136 134 130 128 130 132 133 133 134 138 143 148 152 154 158 168 172 165 157 157 164 173
37 39 39 37 36 36 33 30 31 37 40 40 38 35 35 37 39 39 39 38 38 39 41 40 38 40 42 44 48 53 56 58 65 81 105 119 118 118 122 125 128 129 127 123 121 124 131 136 138 136 135 137 136 132 132 136 137 136 136 134 133 133 134 136 139 139 143 159 172 173 170 169 171 178
33 36 35 34 34 34 33 34 36 40 42 41 37 34 36 41 44 44 41 38 38 39 37 37 38 42 47 49 51 53 55 55 57 65 86 120 131 124 122 128 132 132 132 129 126 127 134 141 145 144 141 140 138 136 137 139 140 139 139 137 134 133 131 129 128 129 133 142 152 157 164 168 158 148
26 28 28 30 31 32 32 35 41 47 46 37 29 32 40 45 45 43 40 38 39 39 38 40 46 52 55 56 55 56 58 59 57 58 69 101 131 131 126 128 130 130 132 133 131 131 136 144 152 155 155 152 149 145 143 144 145 145 145 143 140 138 135 131 129 130 131 132 132 130 129 133 132 129